Location: Brachbach
(49.1847°N, 9.7240°E)
Time: 17:09:32
(UTC+00:00)

Nimbus 7 Rocket - Visible Passes

Search period start: 19 July 2025 00:00
Search period end: 29 July 2025 00:00
Orbit: 921 x 963 km, 99.4° (Epoch: 19 July)

Date Brightness Start Highest point End Pass type
(mag) Time Alt. Az. Time Alt. Az. Time Alt. Az.
19 Jul 4.5 00:57:42 10° NNE 01:03:46 76° WNW 01:07:26 25° SSW visible
19 Jul 6.3 02:41:35 10° NNW 02:45:22 18° NW 02:49:09 10° W visible
19 Jul 5.8 23:30:50 10° NE 23:35:54 27° E 23:38:43 19° SE visible
20 Jul 4.7 01:12:49 10° N 01:18:48 61° WNW 01:22:40 22° SW visible
20 Jul 6.5 02:57:10 10° NNW 03:00:10 14° NW 03:03:10 10° WNW visible
20 Jul 5.5 23:45:38 10° NNE 23:51:08 34° E 23:53:57 23° SE visible
21 Jul 5.0 01:28:00 10° N 01:33:47 48° WNW 01:37:53 19° SW visible
22 Jul 5.1 00:00:32 10° NNE 00:06:18 44° E 00:09:10 27° SSE visible
22 Jul 5.3 01:43:13 10° N 01:48:45 39° WNW 01:53:07 16° WSW visible
23 Jul 4.8 00:15:29 10° NNE 00:21:27 56° E 00:24:24 30° SSE visible
23 Jul 5.6 01:58:28 10° N 02:03:41 31° WNW 02:08:20 12° WSW visible
23 Jul 6.5 22:50:24 10° ENE 22:53:00 13° E 22:55:36 10° ESE visible
24 Jul 4.5 00:30:30 10° NNE 00:36:35 71° ESE 00:39:37 31° S visible
24 Jul 5.9 02:13:45 10° N 02:18:35 25° NW 02:23:24 10° WSW visible
24 Jul 6.3 23:04:31 10° NE 23:08:20 17° E 23:10:53 13° ESE visible
25 Jul 4.4 00:45:34 10° NNE 00:51:40 89° ESE 00:54:50 31° SSW visible
25 Jul 6.1 02:29:08 10° N 02:33:27 21° NW 02:37:45 10° W visible
25 Jul 6.1 23:19:02 10° NE 23:23:38 22° E 23:26:06 17° ESE visible
26 Jul 4.5 01:00:40 10° NNE 01:06:43 73° WNW 01:10:03 28° SSW visible
26 Jul 6.3 02:44:35 10° NNW 02:48:16 17° NW 02:51:58 10° W visible
26 Jul 5.8 23:33:43 10° NE 23:38:53 28° E 23:41:19 22° SE visible
27 Jul 4.7 01:15:48 10° N 01:21:45 58° WNW 01:25:16 25° SW visible
27 Jul 6.5 03:00:13 10° NNW 03:03:04 14° NW 03:05:56 10° WNW visible
27 Jul 5.4 23:48:33 10° NNE 23:54:06 36° E 23:56:32 26° SE visible
28 Jul 5.0 01:30:59 10° N 01:36:44 46° WNW 01:40:28 21° SW visible
